Weather History for KMCD - December, 2012

Change the Weather History Date:

Thursday, December 20, 2012

  Actual Average Record
Temperature  
Mean Temperature 32 °F -  
Max Temperature 37 °F 27 °F 43 °F (1988)
Min Temperature 28 °F 19 °F -2 °F (1983)
Degree Days  
Heating Degree Days 32    
Moisture  
Dew Point 30 °F    
Average Humidity 90    
Maximum Humidity 99    
Minimum Humidity 73    
Precipitation  
Precipitation 0.42 in - - ()
Sea Level Pressure  
Sea Level Pressure 29.68 in    
Wind  
Wind Speed 13 mph (East)    
Max Wind Speed 31 mph    
Max Gust Speed 43 mph    
Visibility 4 miles    
Events Snow    
Averages and records for this station are not official NWS values.
T = Trace of Precipitation, MM = Missing Value Source: NWS Daily Summary

Daily Weather History Graph

Daily Weather History Graph

Search for Another Location

Airport or City:

Trip Planner

Search our weather history database for the weather conditions in past years. The results will help you decide how hot, cold, wet, or windy it might be!

Date:

Astronomy

Dec. 20, 2012 Rise Set
Actual Time 8:16 AM EST 4:56 PM EST
Civil Twilight 7:42 AM EST 5:30 PM EST
Nautical Twilight 7:04 AM EST 6:08 PM EST
Astronomical Twilight 6:27 AM EST 6:45 PM EST
Moon 12:29 PM EST (12/20) 12:45 AM EST (12/20)
Length of Visible Light 9h 48m
Length of Day
8h 39m
First Quarter, 55% of the Moon is Illuminated
Dec 20
First Quarter
Dec 28
Full
Jan 4
Last Quarter
Jan 11
New
Jan 18
First Quarter

Hourly Weather History & Observations

Time (EST) Temp. Windchill Dew Point Humidity Pressure Visibility Wind Dir Wind Speed Gust Speed Precip Events Conditions
12:15 AM 34.3 °F 31.4 °F 27.5 °F 76% 30.07 in 10.0 mi SE 3.5 mph - N/A   Overcast
12:35 AM 34.3 °F 30.2 °F 27.5 °F 76% 30.06 in 10.0 mi ESE 4.6 mph - N/A   Overcast
12:56 AM 33.8 °F 28.6 °F 27.3 °F 77% 30.06 in 10.0 mi SE 5.8 mph - N/A   Overcast
1:15 AM 33.8 °F 29.6 °F 27.7 °F 78% 30.05 in 10.0 mi SE 4.6 mph - N/A   Overcast
1:35 AM 34.0 °F 29.8 °F 27.5 °F 77% 30.05 in 10.0 mi SE 4.6 mph - N/A   Overcast
2:35 AM 35.2 °F 31.2 °F 27.5 °F 73% 30.03 in 10.0 mi ESE 4.6 mph - N/A   Overcast
2:56 AM 35.4 °F 31.5 °F 28.4 °F 76% 30.02 in 10.0 mi ESE 4.6 mph - N/A   Overcast
3:15 AM 35.2 °F 29.5 °F 28.9 °F 78% 30.02 in 10.0 mi ESE 6.9 mph - N/A   Overcast
3:35 AM 35.2 °F 30.3 °F 29.5 °F 80% 30.01 in 10.0 mi ESE 5.8 mph - N/A   Overcast
3:56 AM 35.4 °F 30.5 °F 30.0 °F 81% 30.01 in 10.0 mi SE 5.8 mph - N/A   Overcast
4:15 AM 35.2 °F 29.5 °F 29.8 °F 81% 30.00 in 10.0 mi ESE 6.9 mph 16.1 mph N/A   Overcast
4:35 AM 35.8 °F 28.8 °F 29.8 °F 79% 30.00 in 10.0 mi ESE 9.2 mph - N/A   Overcast
4:56 AM 36.5 °F 29.7 °F 30.2 °F 78% 29.97 in 10.0 mi ESE 9.2 mph - N/A   Overcast
5:15 AM 36.7 °F 31.2 °F 30.7 °F 79% 29.98 in 10.0 mi ESE 6.9 mph 16.1 mph N/A   Mostly Cloudy
5:35 AM 36.9 °F 30.7 °F 30.9 °F 79% 29.96 in 10.0 mi ESE 8.1 mph - N/A   Scattered Clouds
5:56 AM 36.7 °F 31.2 °F 30.0 °F 77% 29.95 in 10.0 mi ESE 6.9 mph - N/A   Scattered Clouds
6:15 AM 36.7 °F 29.9 °F 29.3 °F 75% 29.95 in 10.0 mi ESE 9.2 mph 17.3 mph N/A   Mostly Cloudy
6:56 AM 36.5 °F 29.7 °F 30.9 °F 80% 29.93 in 10.0 mi ESE 9.2 mph 17.3 mph N/A   Overcast
7:15 AM 36.7 °F 30.5 °F 31.8 °F 83% 29.92 in 10.0 mi East 8.1 mph 16.1 mph N/A   Overcast
7:36 AM 37.4 °F 29.8 °F 31.6 °F 80% 29.90 in 10.0 mi ESE 11.5 mph 18.4 mph N/A   Overcast
7:56 AM 37.0 °F 28.9 °F 32.5 °F 84% 29.88 in 10.0 mi ESE 12.7 mph 25.3 mph N/A   Overcast
8:15 AM 35.8 °F 28.3 °F 33.1 °F 90% 29.87 in 5.0 mi ESE 10.4 mph 34.5 mph 0.01 in Snow Light Snow
8:36 AM 34.7 °F 25.9 °F 32.5 °F 92% 29.86 in 3.0 mi ESE 12.7 mph 24.2 mph 0.05 in Snow Light Snow
8:56 AM 34.7 °F 24.3 °F 32.5 °F 92% 29.85 in 2.5 mi East 17.3 mph 23.0 mph 0.07 in Snow Light Snow
9:15 AM 34.5 °F 24.8 °F 32.7 °F 93% 29.83 in 2.0 mi East 15.0 mph 26.5 mph 0.02 in Snow Light Snow
9:36 AM 33.4 °F 22.7 °F 32.0 °F 94% 29.81 in 1.2 mi East 17.3 mph 29.9 mph 0.04 in Snow Light Snow
9:56 AM 33.1 °F 23.0 °F 32.0 °F 96% 29.80 in 1.2 mi East 15.0 mph 31.1 mph 0.06 in Snow Light Snow
10:15 AM 33.8 °F 25.3 °F 32.4 °F 94% 29.79 in 2.0 mi East 11.5 mph 32.2 mph 0.01 in Snow Light Snow
10:36 AM 33.6 °F 22.6 °F 32.0 °F 94% 29.77 in 1.8 mi East 18.4 mph 42.6 mph 0.02 in Snow Light Snow
10:56 AM 33.4 °F 23.5 °F 32.0 °F 94% 29.77 in 1.8 mi East 15.0 mph 32.2 mph 0.03 in Snow Light Snow
11:15 AM 33.3 °F 21.2 °F 32.0 °F 95% 29.74 in 1.5 mi East 21.9 mph 38.0 mph 0.02 in Snow Light Snow
11:36 AM 33.8 °F 22.8 °F 32.0 °F 93% 29.72 in 1.8 mi East 18.4 mph 35.7 mph 0.03 in Snow Light Snow
11:56 AM 32.9 °F 21.6 °F 32.0 °F 96% 29.71 in 0.8 mi East 18.4 mph 29.9 mph 0.04 in Snow Light Snow
12:15 PM 32.9 °F 23.2 °F 32.0 °F 96% 29.69 in 0.8 mi East 13.8 mph 29.9 mph 0.01 in Snow Light Snow
12:36 PM 32.4 °F 22.1 °F 31.8 °F 98% 29.65 in 0.8 mi East 15.0 mph 29.9 mph 0.02 in Snow Light Snow
12:55 PM 32.0 °F 20.8 °F 31.5 °F 98% 29.63 in 0.5 mi ENE 17.3 mph 33.4 mph 0.03 in Snow Snow
1:15 PM 32.0 °F 20.1 °F 31.6 °F 99% 29.61 in 0.2 mi East 19.6 mph 31.1 mph 0.01 in Snow Snow
1:36 PM 32.0 °F 19.5 °F 31.6 °F 99% 29.59 in 0.5 mi ENE 21.9 mph 32.2 mph 0.03 in Snow Snow
1:55 PM 32.0 °F 18.6 °F 31.5 °F 98% 29.56 in 0.5 mi ENE 25.3 mph 34.5 mph 0.04 in Snow Snow
2:15 PM 32.0 °F 18.6 °F 31.6 °F 99% 29.53 in 0.5 mi ENE 25.3 mph 36.8 mph 0.01 in Snow Snow
2:36 PM 32.0 °F 18.6 °F 31.5 °F 98% 29.50 in 0.5 mi ENE 25.3 mph 34.5 mph 0.02 in Snow Snow
3:15 PM 32.2 °F 19.7 °F 31.6 °F 98% 29.47 in 0.8 mi ENE 21.9 mph 39.1 mph 0.01 in Snow Light Snow
3:36 PM 32.2 °F 18.6 °F 31.6 °F 98% 29.47 in 0.5 mi ENE 26.5 mph 38.0 mph 0.02 in Snow Snow
3:55 PM 32.0 °F 19.2 °F 31.1 °F 96% 29.45 in 0.2 mi ENE 23.0 mph 39.1 mph 0.03 in Snow Snow
4:15 PM 32.0 °F 19.2 °F 31.1 °F 96% 29.45 in 0.5 mi ENE 23.0 mph 42.6 mph 0.01 in Snow Snow
4:55 PM 32.0 °F 18.1 °F 30.7 °F 95% 29.44 in 0.8 mi ENE 27.6 mph 40.3 mph 0.02 in Snow Light Snow
5:15 PM 31.6 °F 19.0 °F 30.2 °F 94% 29.45 in 1.2 mi ENE 21.9 mph 35.7 mph 0.01 in Snow Light Snow
5:36 PM 31.5 °F 18.2 °F 30.2 °F 95% 29.44 in 0.5 mi ENE 24.2 mph 33.4 mph 0.01 in Snow Snow
5:55 PM 31.1 °F 17.2 °F 30.0 °F 96% 29.44 in 0.8 mi ENE 26.5 mph 36.8 mph 0.02 in Snow Snow
6:15 PM 30.9 °F 16.9 °F 29.7 °F 95% 29.43 in 1.0 mi ENE 26.5 mph 38.0 mph N/A Snow Light Snow
6:36 PM 30.9 °F 16.2 °F 29.5 °F 94% 29.42 in 0.5 mi NE 29.9 mph 35.7 mph 0.01 in Snow Snow
6:55 PM 30.6 °F 16.7 °F 29.3 °F 95% 29.40 in 0.8 mi NE 25.3 mph 34.5 mph 0.02 in Snow Snow
7:15 PM 30.6 °F 16.2 °F 29.3 °F 95% 29.39 in 1.2 mi ENE 27.6 mph 36.8 mph N/A Snow Light Snow
7:36 PM 30.2 °F 15.4 °F 28.9 °F 95% 29.39 in 1.5 mi ENE 28.8 mph 36.8 mph N/A Snow Light Snow
7:55 PM 30.0 °F 16.3 °F 28.4 °F 94% 29.38 in 2.0 mi NE 24.2 mph 41.4 mph 0.01 in Snow Light Snow
8:15 PM 29.8 °F 14.5 °F 28.2 °F 94% 29.37 in 0.5 mi ENE 31.1 mph 39.1 mph N/A Snow Snow
8:36 PM 29.5 °F 14.2 °F 28.2 °F 95% 29.37 in 0.8 mi NE 29.9 mph 40.3 mph N/A Snow Snow
8:55 PM 29.3 °F 15.0 °F 28.2 °F 96% 29.36 in 1.0 mi NE 25.3 mph 34.5 mph N/A Snow Light Snow
9:15 PM 29.1 °F 14.8 °F 27.7 °F 94% 29.35 in 1.2 mi NE 25.3 mph 32.2 mph 0.01 in Snow Light Snow
9:36 PM 28.9 °F 14.8 °F 27.3 °F 94% 29.34 in 1.8 mi NE 24.2 mph 34.5 mph 0.01 in Snow Light Snow
9:55 PM 28.9 °F 15.4 °F 27.1 °F 93% 29.34 in 2.5 mi NE 21.9 mph 36.8 mph 0.01 in Snow Light Snow
10:15 PM 28.8 °F 14.6 °F 27.0 °F 93% 29.33 in 3.0 mi NE 24.2 mph 34.5 mph N/A Snow Light Snow
10:36 PM 28.4 °F 13.3 °F 26.6 °F 93% 29.33 in 1.5 mi NE 27.6 mph 34.5 mph N/A Snow Light Snow
10:55 PM 28.8 °F 14.9 °F 26.6 °F 92% 29.33 in 1.8 mi NE 23.0 mph 35.7 mph N/A Snow Light Snow
11:15 PM 28.4 °F 13.8 °F 26.8 °F 94% 29.33 in 0.8 mi NE 25.3 mph 35.7 mph 0.01 in Snow Snow
11:36 PM 28.4 °F 14.4 °F 27.1 °F 95% 29.33 in 0.8 mi NE 23.0 mph 33.4 mph 0.01 in Snow Snow
11:55 PM 28.2 °F 16.3 °F 26.6 °F 94% 29.33 in 0.8 mi NNE 16.1 mph 25.3 mph 0.02 in Snow Snow